sat.trackr.live / text

‹ back to catalog

STARLINK-1307

NORAD 45397 · 2020-019AP

PAYLOAD ACTIVE UNKNOWN

§ Identity

Operator
Country
US
Launch date
2020-03-18
Launch site
AFETR
Launch vehicle
Mass (kg)
RCS (m²)

Purposes: comms

External: N2YO · Heavens-Above · Gunter

§ Orbital elements

Epoch: 2026-05-25T04:45:34.233696Z

Period
92.57 min
Inclination
53.0524°
Eccentricity
0.0002729
Mean motion
15.55500703 rev/d
Perigee alt
398.8 km
Apogee alt
402.5 km
Semi-major
6,778.8 km
B*
4.9360e-4
RAAN
121.9702°
Arg perigee
52.5287°
Mean anomaly
307.5971°
Rev number
34,194

§ Raw data

STARLINK-13071 45397U 20019AP  26145.19831289  .00033980  00000+0  49360-3 0  99962 45397  53.0524 121.9702 0002729  52.5287 307.5971 15.55500703341944

JSON: /api/v1/satellites/45397 · /tle

For live sub-satellite position, see the globe view (requires WebGL).

§ Visibility from observer

Set your observer location to see the next 7 days of passes ≥ 10°. The values pass through the URL so the page stays shareable.

No JS? Fill the form by hand. The geolocation button needs JavaScript.